Погода в Траки

США     39°19′40″N   120°10′59″W
темп.,
°C
ветер,
м/с
пор.,
м/с
влажн.,
%
обл.,
%
осадки,
мм/ч
давл.,
гПа
погр.,
м
19 апреля, пн
пн1923:00−1вюв01830 0.0 102711
02:00−1ю0180100 0.0 102511
05:00−1вюв0078100 0.0 102511
08:00+6юз00715 0.0 102132
11:00+12зюз24565 0.0 10191017
14:00+14з4544100 0.0 10171995
17:00+12з46545 0.0 10161069
20:00+2зюз11850 0.0 102011
20 апреля, вт
вт2023:000ююз01854 0.0 102111
02:00−1ююз117890 0.0 102011
05:00−1ю017531 0.0 101910
08:00+6ю11572 0.0 101360
11:00+10юз47370 0.0 10111692
14:00+11юз57340 0.0 10082103
17:00+9юз44454 0.0 10081770
20:00+1с218786 0.4 101121
21 апреля, ср
ср2123:00−1св22974 0.4 101433
02:00−1св11935 0.0 101318
05:00−1ссв22920 0.0 101431
08:00+3св24650 0.0 1012211
11:00+9св34360 0.0 10101474
14:00+12св23295 0.0 10092399
17:00+11св333161 0.0 10082494
20:00+2св22440 0.0 101219
22 апреля, чт
чт2223:000св11450 0.0 101414
02:000ссв11440 0.0 101412
05:00−1ссв11470 0.0 101512
08:00+6св01385 0.0 1013105
11:00+12сз2324100 0.0 10111679
14:00+15зсз452140 0.0 10092514
17:00+12з55333 0.0 10101809
20:00+4зюз22645 0.0 101323
23 апреля, пт
пт2323:00+3юз1167100 0.0 101515
02:00+2юз116399 0.0 101412
05:00+2юз116133 0.0 101412
08:00+7зюз124515 0.0 1013113
11:00+13зюз45271 0.0 10121320
14:00+15зюз56283 0.0 10101790
17:00+13зюз573710 0.0 10111315
20:00+5юз2271100 0.0 101421